Location: Poughquag
(41.6090°N, 73.6820°W)
Time: 14:18:07
(UTC-04:00)

Vanguard 2 - Pass Details

Date: 05 June 2020
Orbit: 552 x 2938 km, 32.9° (Epoch: 05 July)

Event Time Altitude Azimuth Distance (km) Brightness Sun altitude
Rises 21:30:36 0° 268° (W) 5,959 12.8 -10.4°
Reaches altitude 10° 21:35:17 10° 264° (W) 4,584 12.0 -11.0°
Maximum altitude 21:46:08 44° 198° (SSW) 1,898 9.3 -12.5°
Enters shadow 21:51:29 17° 134° (SE) 2,480 9.5 -13.1°
Drops below altitude 10° 21:52:48 10° 128° (SE) 2,845 - -13.3°
Sets 21:55:04 0° 121° (ESE) 3,560 - -13.6°
